Showing default

ICEYE-X33, 60548

Orbit data source: Space-Track

ICEYE-X33, 60548 is an American payload satellite in SSO that was launched on Fri, 16 Aug 2024 UTC via an FALCON 9 launch vehicle from the Air Force Western Test Range (AFWTR). Payload-class satellites include a variety of spacecraft equipped with specific instruments for various scientific and technological missions. These include communications satellites like Starlink; space stations such as the ISS; scientific satellites like the Hubble; Earth observation satellites from companies like Planet Labs, Umbra, and HawkEye 360; GPS; miniature CubeSats for education and research; and military/defense satellites.

Loading next visibility...
Identifier
60548, 2024-149CJ
Orbit
SSO
Country
Flag of USUS
Related business
Manufacturer
ICEYE
Mission
Operational Commercial Radar Imaging
Bus & Motor
ICEYE, Unknown motor
Mass
80 kg wet, 80 kg dry
Launch date (UTC)
2024-08-16 (2 years ago)
Launch vehicle
FALCON 9
Launch site
Air Force Western Test Range (AFWTR)
Object type
Payload
Rocket body
Debris
Shape & HBR
Box + 1 Pan, 0.8 m
Radar Cross Section
0.776 m², Medium (>0.1 m² and < 1m²)

Expand to show TLE details & history
Last TLE update: 1 day ago

TLE from 1 day ago
0 ICEYE-X33
1 60548U 24149CJ  26252.76900365  .00003346  00000-0  26608-3 0  9997
2 60548  97.7492 331.5644 0001210  51.4938 308.6394 15.01114312112896
Epoch: 2026-09-09T18:27Z
TLE epoch observation values (Epoch: 2026-09-09T18:27:21.915Z)
Latitude
-0.00004°
Longitude
65.90678°
Altitude
565.989 km
Speed
7.578 km/s
True Right ascension
22h 06m 15s
True Declination
0° 00' 00"
Sunlit
Object was in full shadow at epoch
Visualization orbit readout
Latitude
Unknown
Longitude
Unknown
Altitude
Unknown
Speed
Unknown
Apparent Right ascension
Unknown
Apparent Declination
Unknown
Sunlit
N/A
Visualization observer readout
Local Sidereal Time
15:10:38
Azimuth
Unknown
Elevation
Unknown
Doppler factor
Unknown
Orbital elements
Apogee altitude
561.304 km
Perigee altitude
559.625 km
Semi-major axis
6,938.602 km
Eccentricity
0.00012
Inclination
97.7492°
RAAN
331.5644°
Arg. of periapsis
51.4938°
True anomaly
308.62857°
Mean anomaly
308.6394°
Eccentric anomaly
308.63398°
Mean motion
3.75522 °/min
Orbital period
95.87 mins
BSTAR
0.00026608
Loading maneuver chart data...
Computing Atmospheric mass density...
Loading historical data...
Loading historical data...
Loading historical data...
Loading historical data...
Loading historical data...
Loading historical data...
Loading historical data...

Documentation

Showing up to 5 results
|